Regional Weather Roundup
Issued by NWS

Home | Current Version | Previous Version | Graphics & Text | Print | Product List | Glossary On
Versions: 1 2 3 4 5 6 7 8 9 10 11 12 13 14 15 16 17 18 19 20 21 22 23 24 25 26 27 28 29 30 31 32 33 34 35 36 37 38 39 40 41 42 43 44 45 46 47 48 49 50
000
ASUS43 KFSD 241010
RWRSD

WEATHER ROUNDUP FOR SOUTH DAKOTA
NATIONAL WEATHER SERVICE SIOUX FALLS SD
500 AM CDT WED MAY 24 2017

NOTE: "FAIR" INDICATES FEW OR NO CLOUDS BELOW 12,000 FEET WITH NO
SIGNIFICANT WEATHER AND/OR OBSTRUCTIONS TO VISIBILITY.


SDZ001>005-009-010-012>017-241100-
NORTHWEST AND NORTH CENTRAL SOUTH DAKOTA

CITY           SKY/WX    TMP DP  RH WIND       PRES   REMARKS
BUFFALO          N/A     43  37  79 SE15      29.72F
FAITH            N/A     36  35  96 S13       29.84F
MOBRIDGE       CLOUDY    42  38  85 CALM      29.83F
$$

SDZ012>016-024>037-041>051-057-063-072>074-241100-
SOUTHWEST AND SOUTH CENTRAL SOUTH DAKOTA

CITY           SKY/WX    TMP DP  RH WIND       PRES   REMARKS
RAPID CTY ARPT CLEAR     39  33  79 S8        29.84F
PIERRE         PTCLDY    37  34  89 SW5       29.85F
CUSTER         CLOUDY    33  28  81 W3        29.87F
ELLSWORTH AFB  CLEAR     43  36  76 S12       29.82F
PHILIP         CLOUDY    30  29  96 W3        29.88F
PINE RIDGE     CLEAR     35  33  92 W3        29.89F
SPEARFISH      FAIR      37  34  87 S6        29.79F
WINNER         FAIR      38  36  92 SW6       29.87F
$$

SDZ004>011-016>023-039-040-241100-
NORTHEAST SOUTH DAKOTA

CITY           SKY/WX    TMP DP  RH WIND       PRES   REMARKS
ABERDEEN       MOCLDY    40  37  89 N3        29.86F
WATERTOWN      CLOUDY    43  41  93 NE5       29.83F
BROOKINGS      MOCLDY    41  39  93 N5        29.84S
SISSETON         N/A     45  44  97 NW7       29.84F
$$

SDZ017-020-022-023-036>040-048>070-241100-
SOUTHEAST SOUTH DAKOTA

CITY           SKY/WX    TMP DP  RH WIND       PRES   REMARKS
SIOUX FALLS    CLEAR     43  43 100 N6        29.82S
HURON          CLEAR     34  34 100 NW3       29.86F FOG
CHAMBERLAIN    CLEAR     38  38 100 W5        29.87F
MITCHELL       CLEAR     40  39  97 NW6       29.85F
YANKTON        CLEAR     43  41  93 NW10      29.83F
$$

ABBREVIATIONS USED IN REMARKS
   TC - TEMPERATURE IN CELSIUS
  WCI - WIND CHILL INDEX
   HX - HEAT INDEX
  VSB - VISIBILITY




USA.gov is the U.S. government's official web portal to all federal, state and local government web resources and services.